Temperature
4 4 4 4 4 4 4 3 3 3 3 4 4 4 4 4 4 4 4 4 4 4 5 5 5 5 5 5 5 6 6 6 6 6 6 6 6 6
4 4 3 3 3 3 3 3 3 2 2 3 3 3 3 3 3 3 4 4 4 4 4 4 4 4 4 5 5 5 5 5 5 5 5 5 5 5
3 3 3 3 3 3 3 3 2 2 2 2 3 3 3 3 3 3 3 3 3 3 3 3 3 4 4 4 4 4 4 4 4 4 4 5 5 5
3 2 2 2 2 2 2 2 2 2 1 1 2 2 2 2 2 2 2 3 3 3 3 3 3 3 3 3 4 4 4 4 4 4 4 4 4 4
2 2 2 2 2 2 2 1 1 1 1 1 1 1 1 1 2 2 2 2 2 2 2 2 2 3 3 3 3 3 3 3 3 3 3 3 3 3
2 1 1 1 1 1 1 1 1 1 1 1 1 1 1 1 1 1 1 2 2 2 2 2 2 2 2 2 2 2 2 2 2 2 2 2 2 2
1 1 1 1 1 0 0 0 0 -0 -0 -0 -0 -0 -0 -0 -0 -0 0 1 1 1 1 2 2 2 2 2 2 2 2 2 2 2 2 2 2 2
1 1 1 0 0 0 -0 -0 -1 -1 -1 -1 -1 -1 -1 -1 -1 -1 -1 -1 -0 0 0 1 1 1 1 1 1 1 1 1 1 1 1 1 1 1
0 0 0 -0 -0 -0 -1 -1 -1 -1 -1 -2 -2 -2 -2 -1 -1 -1 -1 -2 -1 -1 -1 0 1 1 1 1 1 1 1 1 0 1 1 1 1 1
-0 -0 -1 -1 -1 -1 -1 -1 -1 -1 -1 -2 -2 -2 -2 -2 -2 -2 -2 -2 -1 -1 -2 -1 -0 -0 1 1 0 0 0 0 -0 0 0 0 0 0
-1 -1 -1 -1 -1 -2 -2 -2 -1 -1 -2 -2 -2 -2 -2 -2 -2 -2 -2 -2 -2 -2 -2 -2 -2 -1 -0 0 0 -0 -0 -1 -1 -0 -0 -0 -0 -0
-1 -1 -1 -2 -2 -2 -2 -2 -2 -2 -2 -2 -2 -2 -2 -2 -2 -3 -3 -3 -3 -3 -3 -3 -3 -3 -3 -1 -1 -1 -1 -1 -1 -1 -1 -1 -1 -1
-1 -1 -2 -2 -2 -2 -3 -3 -3 -3 -3 -3 -2 -2 -2 -2 -3 -3 -3 -3 -4 -4 -4 -4 -4 -4 -4 -4 -2 -2 -2 -2 -2 -1 -1 -1 -1 -1
-2 -2 -2 -2 -3 -3 -3 -3 -3 -3 -3 -3 -3 -3 -3 -3 -3 -3 -3 -4 -4 -4 -4 -4 -4 -4 -5 -5 -4 -3 -3 -3 -2 -2 -2 -2 -2 -2
-2 -2 -2 -3 -3 -3 -3 -3 -4 -4 -4 -4 -4 -4 -4 -4 -4 -4 -3 -4 -4 -4 -4 -4 -5 -5 -5 -5 -5 -4 -4 -3 -3 -3 -2 -2 -2 -2
-3 -3 -3 -3 -3 -3 -3 -4 -4 -4 -4 -4 -4 -4 -4 -4 -4 -4 -4 -4 -4 -4 -4 -4 -5 -5 -5 -5 -5 -4 -4 -4 -4 -3 -3 -3 -3 -3
-3 -3 -3 -3 -3 -3 -4 -4 -4 -4 -5 -5 -5 -5 -5 -5 -4 -5 -5 -5 -5 -5 -4 -4 -5 -5 -5 -5 -5 -4 -4 -4 -4 -4 -4 -4 -3 -3
-4 -4 -4 -4 -4 -4 -4 -4 -4 -4 -5 -5 -5 -5 -5 -5 -5 -5 -5 -5 -5 -5 -5 -5 -5 -5 -5 -5 -5 -5 -5 -4 -4 -4 -4 -5 -4 -3
-4 -4 -4 -4 -4 -4 -4 -5 -5 -5 -5 -5 -5 -5 -5 -5 -6 -5 -6 -6 -6 -6 -6 -6 -6 -6 -6 -6 -5 -5 -5 -5 -5 -5 -5 -5 -5 -4
-4 -4 -4 -4 -5 -5 -5 -5 -5 -5 -6 -6 -6 -6 -6 -6 -6 -6 -6 -6 -6 -6 -6 -6 -6 -7 -7 -7 -7 -5 -5 -6 -6 -5 -5 -5 -5 -4
-4 -4 -4 -4 -5 -5 -5 -5 -6 -6 -6 -6 -6 -6 -6 -6 -6 -6 -6 -7 -7 -7 -7 -6 -6 -7 -7 -7 -7 -6 -6 -6 -6 -6 -6 -5 -5 -5
-4 -4 -4 -5 -5 -5 -5 -6 -6 -6 -6 -6 -6 -6 -6 -7 -7 -7 -7 -7 -7 -7 -7 -7 -7 -7 -7 -7 -7 -7 -6 -6 -5 -5 -6 -6 -6 -6
-4 -5 -5 -5 -5 -5 -6 -6 -6 -6 -6 -6 -7 -7 -7 -7 -7 -7 -7 -7 -7 -7 -7 -7 -7 -7 -7 -7 -8 -7 -7 -6 -6 -5 -5 -5 -5 -5
Wind_Speed
2 2 2 2 3 3 3 3 4 6 6 4 3 3 5 6 8 9 9 11 12 12 12 12 12 12 12 12 11 12 10 10 10 10 11 11 12 12
1 2 2 3 3 2 2 3 3 5 6 4 4 5 6 7 9 9 9 11 11 12 12 12 12 12 12 12 11 11 10 10 11 11 11 12 12 12
2 2 3 3 3 3 3 3 3 4 7 6 4 5 5 6 8 8 9 8 9 12 12 12 12 12 12 12 11 12 11 11 11 11 12 12 12 13
3 3 4 4 4 3 3 3 4 4 5 8 6 5 6 6 6 7 8 8 8 11 12 12 13 12 12 12 12 12 11 11 11 11 12 12 13 14
3 4 4 4 4 4 4 4 4 4 4 6 7 5 5 5 6 6 7 6 8 10 11 12 12 13 13 13 12 11 11 11 11 11 11 12 13 15
4 4 5 4 5 5 4 5 5 5 5 6 7 6 5 4 4 5 7 5 6 7 9 10 12 13 13 13 12 11 11 11 11 11 11 12 13 14
4 4 5 6 7 6 5 5 5 5 5 6 6 6 6 5 5 5 7 8 7 5 5 6 7 7 8 11 11 11 11 11 11 11 11 11 12 13
5 5 5 6 8 9 10 9 7 6 6 6 6 7 8 6 6 6 6 7 6 3 5 7 5 6 6 7 10 11 11 10 10 10 11 12 12 13
5 5 5 5 7 6 8 10 9 11 10 7 8 8 8 7 7 7 7 7 8 6 5 7 5 6 6 9 11 11 10 10 10 11 11 11 12 13
5 5 5 6 6 6 6 6 6 7 8 7 7 8 8 8 7 7 8 8 8 5 4 6 4 5 6 7 9 9 9 10 10 11 11 12 12 13
5 5 5 5 9 10 6 7 7 7 9 10 11 11 12 13 10 5 5 6 7 5 2 3 3 5 5 4 6 7 9 10 11 11 12 12 13 13
4 5 7 7 9 10 6 6 8 7 6 7 7 8 8 8 10 5 4 5 5 4 2 2 3 3 4 3 3 5 7 10 11 12 12 13 13 9
4 4 5 9 10 10 9 6 9 8 5 5 5 5 5 4 5 5 5 4 5 6 4 2 3 3 3 4 4 4 5 5 7 8 10 12 12 9
5 4 5 9 9 10 8 8 10 8 3 3 4 5 5 5 5 6 6 6 7 8 7 5 4 4 5 6 5 4 4 5 5 6 6 9 10 11
4 7 8 9 7 6 8 9 7 4 3 4 5 5 5 5 5 5 5 5 6 8 8 8 5 5 5 6 6 6 6 5 4 4 5 6 6 6
5 6 7 7 5 5 6 5 3 3 4 5 5 5 4 4 4 4 4 4 4 5 5 6 6 5 6 7 7 7 6 4 4 5 6 7 6 5
3 2 1 2 3 3 3 3 3 3 4 4 4 5 5 5 5 3 3 3 4 5 6 4 4 5 6 6 6 6 6 6 6 6 6 7 7 5
3 2 3 4 4 4 4 4 3 4 4 4 4 4 5 5 5 4 3 3 4 5 5 5 4 4 3 3 5 6 5 5 6 6 6 7 8 6
4 4 4 4 4 4 4 4 4 4 4 4 4 4 4 4 4 4 4 4 4 5 4 4 3 3 5 6 4 3 4 6 6 7 6 6 7 7
3 4 4 4 4 4 4 4 4 4 4 4 4 4 4 4 4 4 3 4 4 4 5 4 3 3 4 5 5 6 8 6 6 7 7 6 7 8
4 4 4 4 4 4 4 4 4 4 4 4 4 4 3 4 4 4 3 5 5 4 5 5 4 6 4 3 4 5 5 7 7 6 6 6 6 5
5 5 5 5 4 4 4 4 4 4 4 4 4 4 3 4 4 4 4 3 4 4 4 5 5 4 3 3 5 7 8 7 8 9 8 7 5 4
5 5 5 4 4 4 4 4 5 4 4 4 4 4 3 3 3 3 3 3 3 4 4 5 5 4 4 3 4 6 8 8 6 6 5 8 9 10
Wind_Direction
308 308 307 303 301 294 287 275 273 289 292 289 295 295 320 320 318 323 317 313 314 313 311 310 310 309 309 304 303 300 292 290 285 279 276 273 273 278
310 321 316 305 299 295 287 282 269 269 281 287 286 298 309 313 314 317 311 309 308 308 306 306 306 306 307 307 305 303 294 291 286 281 281 274 273 278
324 314 304 302 300 298 293 290 284 272 277 290 290 301 302 301 308 313 309 307 307 305 302 302 303 303 304 305 302 302 295 291 286 282 282 280 276 276
293 295 294 301 298 298 296 292 288 279 276 289 297 301 296 299 299 302 310 310 305 302 299 299 300 302 302 303 299 297 292 290 286 283 280 283 281 277
273 277 284 289 291 292 292 289 288 288 278 282 292 296 297 304 309 304 300 296 302 304 300 298 300 302 301 301 300 298 295 291 286 284 285 284 286 282
271 271 275 275 277 282 286 284 290 291 286 285 290 296 295 301 305 307 308 304 303 305 300 302 300 300 299 299 299 297 294 290 286 286 288 287 287 284
275 274 273 275 279 281 285 284 288 290 294 294 293 299 300 310 309 306 304 309 299 288 298 298 297 294 295 295 296 293 292 291 291 292 292 290 289 289
272 279 281 281 285 288 289 288 283 282 285 288 291 293 294 292 294 299 304 309 305 298 308 298 287 284 286 289 293 294 292 293 293 293 294 294 294 293
264 275 286 288 293 290 289 291 287 281 278 277 278 282 290 291 293 292 289 287 283 287 299 289 287 285 284 293 294 292 291 296 299 300 297 294 296 295
261 262 271 281 283 286 284 287 285 285 285 280 270 276 283 289 281 281 284 288 283 273 267 277 290 287 292 291 287 288 294 298 301 302 298 299 299 297
264 262 269 274 284 290 290 285 288 289 293 289 285 287 293 297 300 298 297 299 297 291 258 262 287 301 297 279 282 297 304 303 302 301 300 299 300 299
272 268 272 282 290 293 287 283 285 288 292 297 299 301 301 301 302 292 281 284 292 292 275 280 286 321 312 292 288 304 306 302 303 303 302 301 302 299
271 270 270 284 288 291 291 282 283 291 288 291 293 296 298 297 298 293 281 269 270 269 280 300 287 290 277 296 300 290 289 295 303 302 304 303 302 296
264 267 272 284 290 295 295 293 296 301 300 296 297 298 301 300 298 292 284 272 264 265 275 274 269 275 283 291 292 293 293 290 290 290 296 301 301 297
260 272 280 286 294 298 297 301 303 303 299 295 293 292 290 289 295 299 294 289 284 279 278 270 263 268 270 274 283 289 299 296 287 289 296 298 293 291
264 268 274 281 287 291 299 303 299 291 290 284 291 291 292 295 296 300 302 310 307 299 286 278 269 265 272 275 273 280 286 282 291 299 301 298 291 281
266 268 264 280 279 282 289 287 289 295 293 288 291 297 301 300 299 303 297 300 294 301 309 312 289 273 264 265 273 271 276 284 284 295 300 300 295 282
256 259 258 262 268 273 280 286 282 283 285 286 290 293 296 298 301 305 304 295 294 297 302 311 323 327 319 295 252 257 276 287 295 297 293 295 295 289
242 250 257 260 266 268 269 271 276 280 281 281 285 290 293 296 298 301 304 302 299 300 302 303 314 320 319 316 308 267 278 296 300 301 297 292 289 289
245 253 258 260 264 266 267 270 274 280 281 283 284 289 293 294 298 298 296 295 298 303 307 308 306 299 287 288 293 297 294 283 290 295 299 300 289 286
248 252 254 256 260 261 263 264 268 272 276 278 278 279 283 284 288 291 289 294 301 300 303 304 300 305 297 296 298 298 300 296 286 284 291 301 302 303
248 251 253 254 256 257 258 259 263 267 269 269 272 274 275 277 281 287 286 290 293 295 299 304 309 316 313 299 298 302 309 315 315 307 289 276 285 295
250 251 253 252 253 254 253 252 253 259 261 263 265 269 274 278 282 284 283 285 292 298 307 313 319 320 310 296 297 303 308 315 320 325 320 316 305 291
Height
1476 1475 1475 1474 1473 1473 1471 1470 1469 1464 1460 1460 1460 1459 1458 1457 1455 1453 1452 1450 1449 1448 1446 1445 1444 1444 1443 1443 1442 1442 1442 1442 1442 1442 1443 1444 1444 1445
1472 1472 1471 1470 1470 1469 1468 1466 1465 1463 1458 1456 1456 1455 1454 1452 1450 1449 1447 1445 1443 1442 1441 1440 1439 1438 1437 1436 1436 1435 1435 1435 1436 1436 1436 1437 1437 1437
1469 1468 1468 1467 1466 1464 1463 1462 1461 1459 1455 1452 1452 1450 1449 1447 1445 1444 1442 1440 1438 1436 1435 1434 1433 1432 1431 1430 1430 1429 1428 1428 1429 1429 1429 1430 1430 1430
1465 1465 1464 1463 1461 1460 1459 1458 1456 1455 1452 1448 1446 1445 1444 1442 1440 1438 1436 1434 1432 1431 1429 1428 1427 1425 1424 1423 1423 1422 1422 1421 1422 1422 1422 1422 1422 1423
1462 1461 1460 1459 1457 1456 1455 1454 1452 1450 1448 1445 1442 1440 1439 1437 1435 1432 1431 1429 1427 1425 1423 1422 1421 1419 1418 1417 1416 1415 1415 1414 1414 1414 1414 1414 1414 1415
1458 1457 1456 1455 1453 1452 1451 1449 1447 1446 1444 1441 1438 1435 1434 1432 1430 1427 1424 1423 1421 1419 1417 1416 1414 1413 1411 1410 1409 1408 1408 1407 1407 1407 1406 1407 1407 1407
1454 1453 1452 1450 1449 1448 1447 1445 1443 1441 1439 1437 1434 1431 1429 1427 1425 1422 1419 1417 1414 1413 1411 1409 1408 1406 1405 1403 1402 1401 1401 1400 1400 1399 1399 1399 1400 1400
1449 1448 1447 1446 1444 1443 1442 1440 1439 1437 1435 1433 1430 1427 1425 1423 1421 1418 1415 1412 1408 1407 1405 1402 1402 1399 1398 1396 1395 1394 1394 1393 1393 1392 1392 1392 1393 1392
1445 1443 1442 1441 1440 1438 1437 1435 1434 1432 1431 1429 1426 1423 1421 1419 1416 1413 1411 1408 1404 1402 1399 1395 1395 1392 1391 1390 1389 1388 1387 1387 1386 1386 1386 1386 1386 1385
1440 1439 1437 1436 1434 1433 1431 1430 1428 1427 1425 1423 1421 1418 1416 1414 1412 1409 1406 1402 1399 1397 1394 1390 1387 1386 1384 1384 1383 1382 1381 1381 1380 1379 1379 1379 1379 1378
1435 1434 1432 1431 1430 1428 1426 1424 1422 1421 1420 1418 1415 1413 1411 1409 1406 1404 1401 1397 1393 1391 1390 1386 1382 1379 1377 1377 1377 1377 1376 1375 1374 1373 1372 1372 1372 1371
1430 1429 1428 1426 1425 1423 1422 1419 1417 1415 1414 1412 1410 1407 1405 1403 1401 1399 1396 1393 1390 1386 1384 1383 1379 1376 1371 1370 1371 1371 1370 1369 1368 1367 1367 1366 1365 1364
1425 1424 1423 1422 1420 1419 1417 1415 1413 1411 1408 1406 1404 1402 1400 1397 1395 1394 1392 1389 1387 1384 1382 1379 1376 1373 1371 1366 1364 1365 1364 1363 1362 1361 1361 1360 1359 1358
1420 1420 1418 1417 1416 1414 1412 1410 1408 1406 1404 1401 1399 1396 1394 1392 1390 1388 1386 1384 1382 1380 1378 1376 1373 1370 1367 1363 1360 1359 1359 1358 1357 1356 1355 1354 1353 1352
1416 1415 1414 1413 1411 1409 1408 1406 1404 1401 1399 1397 1394 1392 1390 1388 1385 1383 1381 1380 1378 1376 1374 1372 1370 1367 1365 1362 1358 1356 1354 1352 1352 1351 1349 1348 1347 1346
1412 1410 1409 1408 1406 1404 1403 1401 1399 1397 1395 1393 1390 1388 1385 1383 1381 1378 1376 1374 1372 1371 1370 1368 1366 1364 1361 1359 1356 1352 1351 1349 1347 1345 1344 1342 1342 1340
1407 1406 1404 1403 1401 1399 1398 1396 1395 1393 1391 1389 1386 1384 1381 1379 1377 1375 1373 1371 1369 1367 1365 1364 1362 1360 1357 1355 1352 1350 1348 1346 1344 1342 1339 1337 1336 1335
1402 1400 1399 1398 1396 1395 1393 1392 1390 1389 1387 1385 1382 1380 1378 1375 1373 1371 1370 1368 1366 1364 1362 1360 1358 1355 1353 1351 1350 1347 1344 1342 1340 1338 1336 1333 1330 1330
1397 1396 1395 1394 1392 1391 1389 1388 1386 1385 1383 1381 1378 1377 1375 1372 1371 1369 1367 1365 1363 1361 1359 1358 1355 1353 1350 1347 1345 1345 1342 1339 1336 1334 1332 1330 1326 1325
1392 1391 1390 1389 1388 1387 1385 1384 1382 1380 1379 1377 1375 1373 1371 1370 1368 1366 1364 1363 1361 1359 1357 1355 1354 1352 1350 1347 1343 1340 1340 1336 1333 1330 1328 1326 1323 1322
1388 1387 1386 1385 1384 1383 1381 1379 1378 1376 1375 1373 1371 1370 1368 1367 1365 1363 1362 1360 1359 1357 1354 1353 1351 1350 1348 1345 1341 1337 1335 1334 1332 1328 1325 1322 1319 1317
1383 1382 1381 1380 1379 1378 1377 1375 1374 1372 1371 1369 1368 1367 1365 1364 1362 1361 1359 1358 1356 1354 1352 1351 1349 1347 1345 1342 1338 1335 1331 1330 1328 1326 1323 1321 1318 1315
1378 1378 1377 1376 1375 1373 1372 1371 1369 1368 1367 1366 1364 1363 1362 1361 1359 1358 1357 1356 1354 1352 1350 1348 1346 1345 1342 1340 1337 1333 1330 1327 1324 1321 1320 1318 1317 1314